Abu Dhabi, UAE

2:56 PM +04 on August 24, 2017 (GMT +0400)
Abu Dhabi

Weather History for 41216 - August, 2014

Change the Weather History Date:

Thursday, August 14, 2014

  Actual Average Record
Temperature  
Mean Temperature 96 °F -  
Max Temperature 104 °F 104 °F - ()
Min Temperature 89 °F 83 °F - ()
Cooling Degree Days 32    
Growing Degree Days 46 (Base 50)    
Moisture  
Dew Point 78 °F    
Average Humidity 56    
Maximum Humidity 79    
Minimum Humidity 29    
Precipitation  
Precipitation 0.00 in 0.00 in - ()
Sea Level Pressure  
Sea Level Pressure 29.49 in    
Wind  
Wind Speed 7 mph ()    
Max Wind Speed 14 mph    
Max Gust Speed -    
Visibility 4.8 miles    
Events      
T = Trace of Precipitation, MM = Missing Value Source: Averaged Metar Reports

Daily Weather History Graph

Daily Weather History Graph

Search for Another Location

Airport or City:

Trip Planner

Search our weather history database for the weather conditions in past years. The results will help you decide how hot, cold, wet, or windy it might be!

Date:

Astronomy

Aug. 14, 2014 Rise Set
Actual Time 5:56 AM +04 6:57 PM +04
Civil Twilight 5:32 AM +04 7:20 PM +04
Nautical Twilight 5:04 AM +04 7:48 PM +04
Astronomical Twilight 4:35 AM +04 8:17 PM +04
Moon 9:39 PM +04 (8/14) 9:34 AM +04 (8/14)
Length of Visible Light 13h 48m
Length of Day
13h 00m
Waning Gibbous, 82% of the Moon is Illuminated
Aug 14
Waning Gibbous
Aug 17
Last Quarter
Aug 25
New
Sep 2
First Quarter
Sep 9
Full

Hourly Weather History & Observations

Time (+04) Temp. Heat Index Dew Point Humidity Pressure Visibility Wind Dir Wind Speed Gust Speed Precip Events Conditions
12:00 AM 93.2 °F 120.9 °F 84.2 °F 75% 29.50 in - NNE 11.5 mph - N/A   Clear
1:00 AM 92 °F - 84 °F 73% 29.50 in 6 mi NNE 6.9 mph - -  
1:00 AM 93.2 °F 120.9 °F 84.2 °F 75% 29.50 in - NNE 6.9 mph - N/A   Clear
2:00 AM 91.4 °F 117.8 °F 84.2 °F 79% 29.50 in - North 5.8 mph - N/A   Clear
3:00 AM 91.4 °F 111.0 °F 80.6 °F 71% 29.50 in - NE 6.9 mph - N/A   Clear
4:00 AM 92 °F - 76 °F 50% 29.50 in 6 mi ENE 8.1 mph - -  
4:00 AM 91.4 °F 102.5 °F 75.2 °F 59% 29.47 in - ENE 8.1 mph - N/A   Clear
5:00 AM 89.6 °F 99.8 °F 75.2 °F 62% 29.47 in - East 5.8 mph - N/A   Clear
6:00 AM 91.4 °F 102.5 °F 75.2 °F 59% 29.50 in - SE 3.5 mph - N/A   Clear
7:00 AM 90 °F - 78 °F 60% 29.52 in 6 mi SW 4.6 mph - -   Scattered Clouds
9:00 AM 95.0 °F 103.2 °F 71.6 °F 47% 29.53 in 3.7 mi South 8.1 mph - N/A   Unknown
10:00 AM 99 °F - 70 °F 29% 29.55 in 4 mi WSW 3.5 mph - -   Widespread Dust
10:00 AM 98.6 °F 105.5 °F 69.8 °F 39% 29.53 in 4.3 mi WSW 3.5 mph - N/A   Unknown
11:00 AM 102.2 °F 106.9 °F 66.2 °F 31% 29.53 in 4.3 mi WSW 4.6 mph - N/A   Unknown
12:00 PM 104.0 °F 108.9 °F 66.2 °F 29% 29.50 in 4.3 mi NNW 10.4 mph - N/A   Unknown
1:00 PM 100 °F - 80 °F 45% 29.50 in 6 mi NNW 13.8 mph - -  
1:00 PM 100.4 °F 122.7 °F 80.6 °F 53% 29.50 in - NNW 13.8 mph - N/A   Clear
2:00 PM 100.4 °F 119.5 °F 78.8 °F 50% 29.47 in - North 11.5 mph - N/A   Clear
3:00 PM 102.2 °F 114.4 °F 73.4 °F 40% 29.44 in - North 12.7 mph - N/A   Clear
4:00 PM 102 °F - 72 °F 29% 29.47 in 6 mi North 11.5 mph - -  
4:00 PM 102.2 °F 111.7 °F 71.6 °F 37% 29.44 in - North 11.5 mph - N/A   Clear
5:00 PM 100.4 °F 111.9 °F 73.4 °F 42% 29.44 in 5.6 mi North 11.5 mph - N/A   Unknown
6:00 PM 98.6 °F 120.3 °F 80.6 °F 56% 29.44 in 4.3 mi NNW 10.4 mph - N/A   Unknown
7:00 PM 94 °F - 82 °F 61% 29.47 in 4 mi North 11.5 mph - -   Haze
7:00 PM 95.0 °F 119.6 °F 82.4 °F 67% 29.44 in 3.7 mi North 11.5 mph - N/A   Unknown
8:00 PM 93.2 °F 117.1 °F 82.4 °F 71% 29.47 in 3.1 mi North 9.2 mph - N/A   Haze
9:00 PM 93.2 °F 117.1 °F 82.4 °F 71% 29.47 in 3.7 mi North 5.8 mph - N/A   Unknown
10:00 PM 92 °F - 82 °F 67% 29.49 in 5 mi NNW 4.6 mph - -   Haze
10:00 PM 91.4 °F 114.3 °F 82.4 °F 75% 29.47 in 5.0 mi NNW 4.6 mph - N/A   Unknown
11:00 PM 91.4 °F 111.0 °F 80.6 °F 71% 29.47 in 5.6 mi Variable 1.2 mph - N/A   Unknown